Tracking 29892 objects as of 21-Nov-2024
HD Live streaming from Space Station
objects crossing your sky now

GLOBAL-14

Track GLOBAL-14 now!
10-day predictions


NORAD ID: 49469
Int'l Code: 2021-106A
Perigee: 453.0 km
Apogee: 460.5 km
Inclination: 42.0 °
Period: 93.6 minutes
Semi major axis: 6827 km
RCS: Unknown
Launch date: November 18, 2021
Source: United States (US)
Launch site: Rocket Lab Launch Complex (RLLC)
Your satellite tracking list
Your tracking list is empty




NASA's NSSDC Master Catalog

Two Line Element Set (TLE):
1 49469U 21106A   24325.65937940  .00031931  00000-0  81603-3 0  9999
2 49469  42.0110  40.2687 0005523  22.9350 337.1735 15.38817383169759
Source of the keplerian elements: AFSPC